Saint Bonnet de Bellac- Haute Vienne - France
Donnes mto: mercredi, 11/04/2012
Date Horaire Temp. E. Hum. E. P.atmo. Pluie Vent Direction Direction Ensoleilleme Solaire P. de rose Temp au vent Rafales
11/04/2012 00:00 5,6 C 90 % 1001,5 hPa 0,0 mm 6,8 km/h (2 Bft) S-SO 202 0 min 0 W/m 4,1 C 4,2 C 12,2 km/h (2 Bft)
11/04/2012 00:10 5,6 C 90 % 1001,5 hPa 0,0 mm 5,0 km/h (1 Bft) SO 225 0 min 0 W/m 4,1 C 4,8 C 5,0 km/h (1 Bft)
11/04/2012 00:20 5,5 C 90 % 1001,5 hPa 0,0 mm 6,1 km/h (2 Bft) SO 225 0 min 0 W/m 4,0 C 4,3 C 6,5 km/h (2 Bft)
11/04/2012 00:30 5,4 C 90 % 1001,5 hPa 0,0 mm 3,2 km/h (1 Bft) S-SO 202 0 min 0 W/m 3,9 C 5,4 C 7,6 km/h (2 Bft)
11/04/2012 00:40 5,4 C 91 % 1001,5 hPa 0,0 mm 6,1 km/h (2 Bft) SO 225 0 min 0 W/m 4,1 C 4,2 C 8,3 km/h (2 Bft)
11/04/2012 00:50 5,3 C 91 % 1001,6 hPa 0,0 mm 5,4 km/h (2 Bft) O-SO 247 0 min 0 W/m 4,0 C 4,3 C 11,9 km/h (2 Bft)
11/04/2012 01:00 5,3 C 91 % 1001,5 hPa 0,0 mm 7,9 km/h (2 Bft) S-SO 202 0 min 0 W/m 4,0 C 3,5 C 10,8 km/h (2 Bft)
11/04/2012 01:10 5,3 C 91 % 1001,5 hPa 0,0 mm 5,0 km/h (1 Bft) SO 225 0 min 0 W/m 4,0 C 4,4 C 9,0 km/h (2 Bft)
11/04/2012 01:20 5,3 C 91 % 1001,5 hPa 0,0 mm 6,5 km/h (2 Bft) SO 225 0 min 0 W/m 4,0 C 3,9 C 11,2 km/h (2 Bft)
11/04/2012 01:30 5,4 C 92 % 1001,6 hPa 0,0 mm 7,6 km/h (2 Bft) O-SO 247 0 min 0 W/m 4,2 C 3,7 C 12,6 km/h (3 Bft)
11/04/2012 01:40 5,4 C 92 % 1001,5 hPa 0,0 mm 8,3 km/h (2 Bft) SO 225 0 min 0 W/m 4,2 C 3,5 C 11,5 km/h (2 Bft)
11/04/2012 01:50 5,5 C 92 % 1001,5 hPa 0,0 mm 2,5 km/h (1 Bft) S-SO 202 0 min 0 W/m 4,3 C 5,5 C 6,5 km/h (2 Bft)
11/04/2012 02:00 5,6 C 92 % 1001,5 hPa 0,2 mm 7,9 km/h (2 Bft) SO 225 0 min 0 W/m 4,4 C 3,9 C 11,9 km/h (2 Bft)
11/04/2012 02:10 5,7 C 92 % 1001,4 hPa 0,2 mm 5,0 km/h (1 Bft) O-SO 247 0 min 0 W/m 4,5 C 4,9 C 6,5 km/h (2 Bft)
11/04/2012 02:20 5,5 C 91 % 1001,5 hPa 0,0 mm 7,6 km/h (2 Bft) SO 225 0 min 0 W/m 4,2 C 3,8 C 8,3 km/h (2 Bft)
11/04/2012 02:30 5,4 C 91 % 1001,4 hPa 0,1 mm 5,4 km/h (2 Bft) S-SO 202 0 min 0 W/m 4,1 C 4,4 C 8,3 km/h (2 Bft)
11/04/2012 02:40 5,4 C 92 % 1001,4 hPa 0,0 mm 4,0 km/h (1 Bft) SO 225 0 min 0 W/m 4,2 C 5,4 C 7,6 km/h (2 Bft)
11/04/2012 02:50 5,4 C 92 % 1001,4 hPa 0,0 mm 4,0 km/h (1 Bft) SO 225 0 min 0 W/m 4,2 C 5,4 C 6,1 km/h (2 Bft)
11/04/2012 03:02 5,4 C 92 % 1001,4 hPa 0,0 mm 1,4 km/h (1 Bft) SO 225 0 min 0 W/m 4,2 C 5,4 C 4,3 km/h (1 Bft)
11/04/2012 03:10 5,3 C 92 % 1001,4 hPa 0,0 mm 2,9 km/h (1 Bft) SO 225 0 min 0 W/m 4,1 C 5,3 C 4,3 km/h (1 Bft)
11/04/2012 03:20 5,1 C 92 % 1001,4 hPa 0,0 mm 2,2 km/h (1 Bft) SO 225 0 min 0 W/m 3,9 C 5,1 C 3,2 km/h (1 Bft)
11/04/2012 03:30 5,1 C 93 % 1001,5 hPa 0,0 mm 5,4 km/h (2 Bft) S-SO 202 0 min 0 W/m 4,1 C 4,0 C 5,4 km/h (2 Bft)
11/04/2012 03:40 5,1 C 93 % 1001,6 hPa 0,0 mm 4,3 km/h (1 Bft) S-SO 202 0 min 0 W/m 4,1 C 5,1 C 6,5 km/h (2 Bft)
11/04/2012 03:50 5,1 C 93 % 1001,5 hPa 0,0 mm 4,0 km/h (1 Bft) SO 225 0 min 0 W/m 4,1 C 5,1 C 6,8 km/h (2 Bft)
11/04/2012 04:00 5,1 C 93 % 1001,5 hPa 0,0 mm 2,9 km/h (1 Bft) SO 225 0 min 0 W/m 4,1 C 5,1 C 4,3 km/h (1 Bft)
11/04/2012 04:10 5,1 C 93 % 1001,5 hPa 0,0 mm 5,8 km/h (2 Bft) S-SO 202 0 min 0 W/m 4,1 C 3,9 C 7,9 km/h (2 Bft)
11/04/2012 04:20 5,1 C 93 % 1001,5 hPa 0,0 mm 3,6 km/h (1 Bft) SO 225 0 min 0 W/m 4,1 C 5,1 C 6,8 km/h (2 Bft)
11/04/2012 04:30 5,1 C 93 % 1001,4 hPa 0,0 mm 2,9 km/h (1 Bft) S-SO 202 0 min 0 W/m 4,1 C 5,1 C 4,3 km/h (1 Bft)
11/04/2012 04:40 5,2 C 93 % 1001,4 hPa 0,0 mm 5,0 km/h (1 Bft) SO 225 0 min 0 W/m 4,2 C 4,3 C 8,3 km/h (2 Bft)
11/04/2012 04:50 5,3 C 93 % 1001,6 hPa 0,0 mm 3,2 km/h (1 Bft) S-SO 202 0 min 0 W/m 4,3 C 5,3 C 4,3 km/h (1 Bft)
11/04/2012 05:00 5,4 C 93 % 1001,6 hPa 0,0 mm 1,8 km/h (1 Bft) S-SO 202 0 min 0 W/m 4,4 C 5,4 C 1,8 km/h (1 Bft)
11/04/2012 05:10 5,4 C 93 % 1001,6 hPa 0,0 mm 1,1 km/h (1 Bft) SO 225 0 min 0 W/m 4,4 C 5,4 C 3,2 km/h (1 Bft)
11/04/2012 05:20 5,5 C 93 % 1001,6 hPa 0,1 mm 3,2 km/h (1 Bft) SO 225 0 min 0 W/m 4,5 C 5,5 C 6,1 km/h (2 Bft)
11/04/2012 05:30 5,5 C 93 % 1001,6 hPa 0,0 mm 3,2 km/h (1 Bft) S-SO 202 0 min 0 W/m 4,5 C 5,5 C 4,3 km/h (1 Bft)
11/04/2012 05:40 5,4 C 93 % 1001,7 hPa 0,0 mm 2,5 km/h (1 Bft) SO 225 0 min 0 W/m 4,4 C 5,4 C 3,2 km/h (1 Bft)
11/04/2012 05:50 5,5 C 93 % 1001,6 hPa 0,0 mm 1,4 km/h (1 Bft) S-SO 202 0 min 0 W/m 4,5 C 5,5 C 2,9 km/h (1 Bft)
11/04/2012 06:00 5,4 C 93 % 1001,7 hPa 0,1 mm 4,0 km/h (1 Bft) SO 225 0 min 0 W/m 4,4 C 5,4 C 4,3 km/h (1 Bft)
11/04/2012 06:10 5,5 C 93 % 1001,8 hPa 0,3 mm 4,7 km/h (1 Bft) S-SO 202 0 min 0 W/m 4,5 C 4,8 C 7,9 km/h (2 Bft)
11/04/2012 06:20 5,6 C 93 % 1001,8 hPa 0,1 mm 5,4 km/h (2 Bft) S-SO 202 0 min 0 W/m 4,6 C 4,6 C 7,6 km/h (2 Bft)
11/04/2012 06:30 5,6 C 93 % 1001,7 hPa 0,0 mm 7,9 km/h (2 Bft) S-SO 202 0 min 0 W/m 4,6 C 3,9 C 8,3 km/h (2 Bft)
11/04/2012 06:40 5,6 C 93 % 1001,8 hPa 0,0 mm 8,3 km/h (2 Bft) S-SO 202 0 min 0 W/m 4,6 C 3,8 C 9,0 km/h (2 Bft)
11/04/2012 06:50 5,6 C 93 % 1001,9 hPa 0,0 mm 5,4 km/h (2 Bft) O-SO 247 0 min 0 W/m 4,6 C 4,6 C 9,7 km/h (2 Bft)
11/04/2012 07:00 5,5 C 93 % 1002,0 hPa 0,0 mm 5,4 km/h (2 Bft) S-SO 202 0 min 0 W/m 4,5 C 4,5 C 7,6 km/h (2 Bft)
11/04/2012 07:10 5,4 C 93 % 1002,0 hPa 0,0 mm 5,8 km/h (2 Bft) SO 225 0 min 0 W/m 4,4 C 4,2 C 9,4 km/h (2 Bft)
11/04/2012 07:20 5,4 C 93 % 1002,1 hPa 0,0 mm 3,6 km/h (1 Bft) S 180 0 min 0 W/m 4,4 C 5,4 C 7,6 km/h (2 Bft)
11/04/2012 07:30 5,5 C 93 % 1002,2 hPa 0,0 mm 3,2 km/h (1 Bft) S 180 2 min 0 W/m 4,5 C 5,5 C 4,3 km/h (1 Bft)
11/04/2012 07:40 5,5 C 93 % 1002,2 hPa 0,0 mm 5,4 km/h (2 Bft) S-SO 202 2 min 0 W/m 4,5 C 4,5 C 7,9 km/h (2 Bft)
11/04/2012 07:50 5,5 C 93 % 1002,2 hPa 0,0 mm 6,5 km/h (2 Bft) SO 225 2 min 0 W/m 4,5 C 4,1 C 14,0 km/h (3 Bft)
11/04/2012 08:00 5,4 C 93 % 1002,2 hPa 0,0 mm 6,8 km/h (2 Bft) O-SO 247 2 min 0 W/m 4,4 C 3,9 C 7,9 km/h (2 Bft)
11/04/2012 08:10 5,4 C 93 % 1002,3 hPa 0,0 mm 5,4 km/h (2 Bft) O-SO 247 2 min 0 W/m 4,4 C 4,4 C 9,7 km/h (2 Bft)
11/04/2012 08:20 5,5 C 93 % 1002,5 hPa 0,0 mm 4,3 km/h (1 Bft) SO 225 2 min 0 W/m 4,5 C 5,5 C 6,8 km/h (2 Bft)
11/04/2012 08:30 5,7 C 93 % 1002,4 hPa 0,0 mm 8,6 km/h (2 Bft) SO 225 2 min 0 W/m 4,7 C 3,8 C 8,6 km/h (2 Bft)
11/04/2012 08:40 5,8 C 93 % 1002,6 hPa 0,0 mm 5,4 km/h (2 Bft) SO 225 2 min 0 W/m 4,8 C 4,8 C 8,6 km/h (2 Bft)
11/04/2012 08:50 6,1 C 93 % 1002,6 hPa 0,0 mm 11,5 km/h (2 Bft) SO 225 2 min 0 W/m 5,1 C 3,7 C 15,8 km/h (3 Bft)
11/04/2012 09:00 6,3 C 93 % 1002,6 hPa 0,0 mm 11,9 km/h (2 Bft) SO 225 2 min 0 W/m 5,3 C 3,8 C 17,6 km/h (3 Bft)
11/04/2012 09:10 6,4 C 92 % 1002,7 hPa 0,0 mm 5,4 km/h (2 Bft) SO 225 2 min 0 W/m 5,2 C 5,5 C 10,1 km/h (2 Bft)
11/04/2012 09:20 6,4 C 92 % 1002,6 hPa 0,0 mm 11,2 km/h (2 Bft) SO 225 2 min 0 W/m 5,2 C 4,1 C 12,6 km/h (3 Bft)
11/04/2012 09:30 6,6 C 91 % 1002,6 hPa 0,0 mm 4,7 km/h (1 Bft) O-SO 247 2 min 0 W/m 5,2 C 6,0 C 6,1 km/h (2 Bft)
11/04/2012 09:40 7,1 C 89 % 1002,7 hPa 0,0 mm 6,5 km/h (2 Bft) SO 225 2 min 0 W/m 5,4 C 6,0 C 9,7 km/h (2 Bft)
11/04/2012 09:50 7,1 C 88 % 1002,8 hPa 0,0 mm 5,8 km/h (2 Bft) S 180 2 min 0 W/m 5,2 C 6,2 C 9,0 km/h (2 Bft)
11/04/2012 10:00 7,7 C 89 % 1002,8 hPa 0,0 mm 5,4 km/h (2 Bft) S-SO 202 2 min 0 W/m 6,0 C 7,0 C 8,6 km/h (2 Bft)
11/04/2012 10:10 8,5 C 86 % 1002,8 hPa 0,0 mm 2,2 km/h (1 Bft) S-SO 202 2 min 0 W/m 6,3 C 8,5 C 7,2 km/h (2 Bft)
11/04/2012 10:20 8,8 C 84 % 1002,8 hPa 0,0 mm 7,6 km/h (2 Bft) SO 225 2 min 0 W/m 6,2 C 7,7 C 10,1 km/h (2 Bft)
11/04/2012 10:30 8,8 C 82 % 1002,9 hPa 0,0 mm 6,8 km/h (2 Bft) S-SO 202 2 min 0 W/m 5,9 C 7,9 C 10,4 km/h (2 Bft)
11/04/2012 10:40 9,1 C 82 % 1003,1 hPa 0,0 mm 11,5 km/h (2 Bft) O 270 2 min 0 W/m 6,2 C 7,3 C 15,5 km/h (3 Bft)
11/04/2012 10:50 9,6 C 82 % 1003,2 hPa 0,0 mm 3,2 km/h (1 Bft) SO 225 2 min 0 W/m 6,7 C 9,6 C 4,3 km/h (1 Bft)
11/04/2012 11:00 10,1 C 79 % 1003,1 hPa 0,0 mm 6,1 km/h (2 Bft) O-SO 247 2 min 0 W/m 6,6 C 10,1 C 6,1 km/h (2 Bft)
11/04/2012 11:10 9,9 C 79 % 1003,1 hPa 0,0 mm 4,7 km/h (1 Bft) S-SO 202 2 min 0 W/m 6,4 C 9,7 C 4,7 km/h (1 Bft)
11/04/2012 11:20 9,8 C 78 % 1003,2 hPa 0,0 mm 4,7 km/h (1 Bft) SO 225 2 min 0 W/m 6,1 C 9,6 C 5,8 km/h (2 Bft)
11/04/2012 11:30 9,8 C 77 % 1003,1 hPa 0,0 mm 10,4 km/h (2 Bft) SO 225 2 min 0 W/m 6,0 C 8,3 C 16,2 km/h (3 Bft)
11/04/2012 11:40 10,4 C 76 % 1003,2 hPa 0,0 mm 8,3 km/h (2 Bft) S-SO 202 2 min 0 W/m 6,4 C 10,4 C 10,1 km/h (2 Bft)
11/04/2012 11:50 10,9 C 75 % 1003,2 hPa 0,0 mm 9,0 km/h (2 Bft) SO 225 2 min 0 W/m 6,6 C 10,9 C 9,7 km/h (2 Bft)
11/04/2012 12:00 10,9 C 74 % 1003,1 hPa 0,0 mm 5,8 km/h (2 Bft) S-SO 202 2 min 0 W/m 6,5 C 10,9 C 7,6 km/h (2 Bft)
11/04/2012 12:10 11,1 C 75 % 1003,0 hPa 0,0 mm 5,8 km/h (2 Bft) O-SO 247 2 min 0 W/m 6,8 C 11,1 C 5,8 km/h (2 Bft)
11/04/2012 12:20 11,7 C 73 % 1003,0 hPa 0,0 mm 11,5 km/h (2 Bft) O-SO 247 2 min 0 W/m 7,0 C 11,7 C 19,8 km/h (3 Bft)
11/04/2012 12:30 11,6 C 71 % 1002,8 hPa 0,0 mm 4,7 km/h (1 Bft) O-SO 247 2 min 0 W/m 6,5 C 11,6 C 10,8 km/h (2 Bft)
11/04/2012 12:40 11,7 C 69 % 1002,8 hPa 0,0 mm 4,7 km/h (1 Bft) O 270 2 min 0 W/m 6,2 C 11,7 C 6,8 km/h (2 Bft)
11/04/2012 12:50 11,1 C 71 % 1002,8 hPa 0,0 mm 4,7 km/h (1 Bft) N 360 2 min 0 W/m 6,0 C 11,1 C 4,7 km/h (1 Bft)
11/04/2012 13:00 10,3 C 75 % 1002,9 hPa 0,0 mm 9,4 km/h (2 Bft) S-SO 202 2 min 0 W/m 6,1 C 10,3 C 11,9 km/h (2 Bft)
11/04/2012 13:10 9,6 C 79 % 1002,9 hPa 0,0 mm 11,2 km/h (2 Bft) SO 225 2 min 0 W/m 6,1 C 8,0 C 14,0 km/h (3 Bft)
11/04/2012 13:20 10,2 C 76 % 1003,0 hPa 0,0 mm 10,1 km/h (2 Bft) S-SO 202 2 min 0 W/m 6,2 C 10,2 C 13,0 km/h (3 Bft)
11/04/2012 13:30 10,4 C 77 % 1002,9 hPa 0,0 mm 8,6 km/h (2 Bft) SO 225 2 min 0 W/m 6,5 C 10,4 C 13,0 km/h (3 Bft)
11/04/2012 13:40 10,9 C 77 % 1002,9 hPa 0,0 mm 7,9 km/h (2 Bft) SO 225 2 min 0 W/m 7,0 C 10,9 C 15,8 km/h (3 Bft)
11/04/2012 13:50 11,1 C 75 % 1003,0 hPa 0,0 mm 8,6 km/h (2 Bft) S-SO 202 2 min 0 W/m 6,8 C 11,1 C 12,2 km/h (2 Bft)
11/04/2012 14:00 11,4 C 73 % 1002,8 hPa 0,0 mm 10,1 km/h (2 Bft) S 180 2 min 0 W/m 6,7 C 11,4 C 16,2 km/h (3 Bft)
11/04/2012 14:10 11,6 C 71 % 1002,9 hPa 0,0 mm 10,4 km/h (2 Bft) SO 225 2 min 0 W/m 6,5 C 11,6 C 11,2 km/h (2 Bft)
11/04/2012 14:20 11,7 C 73 % 1002,7 hPa 0,0 mm 8,6 km/h (2 Bft) S 180 2 min 0 W/m 7,0 C 11,7 C 15,5 km/h (3 Bft)
11/04/2012 14:30 12,3 C 71 % 1002,7 hPa 0,0 mm 6,8 km/h (2 Bft) S-SO 202 2 min 0 W/m 7,2 C 12,3 C 8,3 km/h (2 Bft)
11/04/2012 14:40 12,6 C 70 % 1002,6 hPa 0,0 mm 7,2 km/h (2 Bft) S-SO 202 2 min 0 W/m 7,3 C 12,6 C 7,6 km/h (2 Bft)
11/04/2012 14:50 12,3 C 66 % 1002,5 hPa 0,0 mm 11,2 km/h (2 Bft) S 180 2 min 0 W/m 6,1 C 12,3 C 15,5 km/h (3 Bft)
11/04/2012 15:00 11,9 C 68 % 1002,5 hPa 0,0 mm 9,7 km/h (2 Bft) SO 225 2 min 0 W/m 6,2 C 11,9 C 9,7 km/h (2 Bft)
11/04/2012 15:10 12,0 C 72 % 1002,4 hPa 0,0 mm 4,0 km/h (1 Bft) O 270 2 min 0 W/m 7,1 C 12,0 C 8,6 km/h (2 Bft)
11/04/2012 15:20 12,6 C 68 % 1002,4 hPa 0,0 mm 11,9 km/h (2 Bft) S-SO 202 2 min 0 W/m 6,9 C 12,6 C 18,7 km/h (3 Bft)
11/04/2012 15:30 12,4 C 65 % 1002,4 hPa 0,0 mm 7,2 km/h (2 Bft) SO 225 2 min 0 W/m 6,0 C 12,4 C 9,4 km/h (2 Bft)
11/04/2012 15:40 12,2 C 68 % 1002,4 hPa 0,0 mm 6,1 km/h (2 Bft) SO 225 2 min 0 W/m 6,5 C 12,2 C 8,3 km/h (2 Bft)
11/04/2012 15:50 11,9 C 70 % 1002,3 hPa 0,0 mm 10,8 km/h (2 Bft) O 270 2 min 0 W/m 6,6 C 11,9 C 19,4 km/h (3 Bft)
11/04/2012 16:00 11,8 C 70 % 1002,2 hPa 0,0 mm 6,1 km/h (2 Bft) SO 225 2 min 0 W/m 6,5 C 11,8 C 9,0 km/h (2 Bft)
11/04/2012 16:10 11,7 C 68 % 1002,1 hPa 0,0 mm 12,2 km/h (2 Bft) S-SO 202 2 min 0 W/m 6,0 C 11,7 C 19,8 km/h (3 Bft)
11/04/2012 16:20 11,8 C 69 % 1002,1 hPa 0,0 mm 8,3 km/h (2 Bft) S-SO 202 2 min 0 W/m 6,3 C 11,8 C 14,4 km/h (3 Bft)
11/04/2012 16:30 11,5 C 70 % 1002,1 hPa 0,0 mm 6,5 km/h (2 Bft) S-SO 202 2 min 0 W/m 6,2 C 11,5 C 9,4 km/h (2 Bft)
11/04/2012 16:40 11,2 C 73 % 1002,2 hPa 0,1 mm 9,4 km/h (2 Bft) S 180 2 min 0 W/m 6,5 C 11,2 C 12,6 km/h (3 Bft)
11/04/2012 16:50 10,9 C 76 % 1002,1 hPa 0,2 mm 0,4 km/h (0 Bft) O-NO 292 2 min 0 W/m 6,8 C 10,9 C 0,4 km/h (0 Bft)
11/04/2012 17:00 10,8 C 78 % 1002,1 hPa 0,0 mm 2,2 km/h (1 Bft) S-SO 202 2 min 0 W/m 7,1 C 10,8 C 4,3 km/h (1 Bft)
11/04/2012 17:10 10,8 C 77 % 1002,0 hPa 0,0 mm 2,9 km/h (1 Bft) O-SO 247 2 min 0 W/m 6,9 C 10,8 C 6,1 km/h (2 Bft)
11/04/2012 17:20 10,6 C 79 % 1002,1 hPa 0,0 mm 5,8 km/h (2 Bft) S-SO 202 2 min 0 W/m 7,1 C 10,6 C 8,6 km/h (2 Bft)
11/04/2012 17:30 10,8 C 78 % 1002,0 hPa 0,0 mm 4,3 km/h (1 Bft) O-SO 247 2 min 0 W/m 7,1 C 10,8 C 6,5 km/h (2 Bft)
11/04/2012 17:40 11,3 C 72 % 1001,9 hPa 0,0 mm 3,6 km/h (1 Bft) SO 225 2 min 0 W/m 6,4 C 11,3 C 6,8 km/h (2 Bft)
11/04/2012 17:50 11,6 C 66 % 1001,9 hPa 0,0 mm 5,4 km/h (2 Bft) S-SO 202 2 min 0 W/m 5,5 C 11,6 C 7,9 km/h (2 Bft)
11/04/2012 18:00 11,4 C 69 % 1002,3 hPa 0,0 mm 7,9 km/h (2 Bft) N-NO 337 2 min 0 W/m 5,9 C 11,4 C 9,4 km/h (2 Bft)
11/04/2012 18:10 11,3 C 73 % 1002,3 hPa 0,0 mm 8,6 km/h (2 Bft) NO 315 2 min 0 W/m 6,6 C 11,3 C 10,8 km/h (2 Bft)
11/04/2012 18:20 11,4 C 73 % 1002,2 hPa 0,0 mm 2,9 km/h (1 Bft) O-NO 292 2 min 0 W/m 6,7 C 11,4 C 4,3 km/h (1 Bft)
11/04/2012 18:30 11,5 C 71 % 1002,1 hPa 0,0 mm 1,4 km/h (1 Bft) O-SO 247 2 min 0 W/m 6,4 C 11,5 C 8,3 km/h (2 Bft)
11/04/2012 18:40 11,3 C 71 % 1002,2 hPa 0,0 mm 1,8 km/h (1 Bft) O 270 2 min 0 W/m 6,2 C 11,3 C 4,3 km/h (1 Bft)
11/04/2012 18:50 11,1 C 72 % 1002,2 hPa 0,0 mm 0,4 km/h (0 Bft) O 270 2 min 0 W/m 6,2 C 11,1 C 2,9 km/h (1 Bft)
11/04/2012 19:00 11,1 C 69 % 1002,2 hPa 0,0 mm 2,5 km/h (1 Bft) O-NO 292 2 min 0 W/m 5,6 C 11,1 C 9,4 km/h (2 Bft)
11/04/2012 19:10 11,1 C 69 % 1002,3 hPa 0,0 mm 5,0 km/h (1 Bft) O-SO 247 2 min 0 W/m 5,6 C 11,1 C 14,4 km/h (3 Bft)
11/04/2012 19:20 11,1 C 69 % 1002,4 hPa 0,0 mm 6,1 km/h (2 Bft) S-SO 202 2 min 0 W/m 5,6 C 11,1 C 14,4 km/h (3 Bft)
11/04/2012 19:30 11,1 C 67 % 1002,4 hPa 0,0 mm 6,5 km/h (2 Bft) SO 225 2 min 0 W/m 5,2 C 11,1 C 9,4 km/h (2 Bft)
11/04/2012 19:40 10,8 C 68 % 1002,5 hPa 0,0 mm 4,7 km/h (1 Bft) O-SO 247 2 min 0 W/m 5,1 C 10,8 C 9,4 km/h (2 Bft)
11/04/2012 19:50 10,6 C 68 % 1002,6 hPa 0,0 mm 4,0 km/h (1 Bft) SO 225 2 min 0 W/m 4,9 C 10,6 C 10,1 km/h (2 Bft)
11/04/2012 20:00 10,4 C 69 % 1002,6 hPa 0,0 mm 7,2 km/h (2 Bft) O 270 2 min 0 W/m 5,0 C 10,4 C 14,4 km/h (3 Bft)
11/04/2012 20:10 10,2 C 70 % 1002,7 hPa 0,0 mm 3,2 km/h (1 Bft) O-SO 247 2 min 0 W/m 5,0 C 10,2 C 7,2 km/h (2 Bft)
11/04/2012 20:20 9,9 C 71 % 1002,8 hPa 0,0 mm 3,6 km/h (1 Bft) SO 225 2 min 0 W/m 4,9 C 9,9 C 7,9 km/h (2 Bft)
11/04/2012 20:30 9,6 C 76 % 1002,8 hPa 0,0 mm 6,1 km/h (2 Bft) O-SO 247 0 min 0 W/m 5,6 C 9,0 C 9,0 km/h (2 Bft)
11/04/2012 20:40 9,2 C 78 % 1003,0 hPa 0,0 mm 6,8 km/h (2 Bft) SO 225 0 min 0 W/m 5,6 C 8,3 C 12,2 km/h (2 Bft)
11/04/2012 20:50 8,9 C 79 % 1003,1 hPa 0,0 mm 6,1 km/h (2 Bft) SO 225 0 min 0 W/m 5,5 C 8,2 C 10,8 km/h (2 Bft)
11/04/2012 21:00 8,9 C 80 % 1003,3 hPa 0,0 mm 5,8 km/h (2 Bft) SO 225 0 min 0 W/m 5,6 C 8,3 C 12,6 km/h (3 Bft)
11/04/2012 21:10 8,8 C 82 % 1003,3 hPa 0,0 mm 4,7 km/h (1 Bft) SO 225 0 min 0 W/m 5,9 C 8,5 C 6,5 km/h (2 Bft)
11/04/2012 21:20 8,8 C 82 % 1003,4 hPa 0,0 mm 3,2 km/h (1 Bft) O-SO 247 0 min 0 W/m 5,9 C 8,8 C 7,2 km/h (2 Bft)
11/04/2012 21:30 8,6 C 83 % 1003,3 hPa 0,0 mm 2,5 km/h (1 Bft) SO 225 0 min 0 W/m 5,9 C 8,6 C 4,0 km/h (1 Bft)
11/04/2012 21:40 8,6 C 84 % 1003,5 hPa 0,0 mm 5,0 km/h (1 Bft) SO 225 0 min 0 W/m 6,1 C 8,2 C 8,6 km/h (2 Bft)
11/04/2012 21:50 8,5 C 84 % 1003,5 hPa 0,0 mm 4,0 km/h (1 Bft) SO 225 0 min 0 W/m 6,0 C 8,5 C 7,6 km/h (2 Bft)
11/04/2012 22:00 8,5 C 84 % 1003,6 hPa 0,0 mm 5,4 km/h (2 Bft) SO 225 0 min 0 W/m 6,0 C 7,9 C 7,2 km/h (2 Bft)
11/04/2012 22:10 8,6 C 84 % 1003,5 hPa 0,0 mm 5,4 km/h (2 Bft) O-SO 247 0 min 0 W/m 6,1 C 8,0 C 8,6 km/h (2 Bft)
11/04/2012 22:20 8,5 C 84 % 1003,5 hPa 0,0 mm 5,0 km/h (1 Bft) SO 225 0 min 0 W/m 6,0 C 8,1 C 6,5 km/h (2 Bft)
11/04/2012 22:30 8,5 C 85 % 1003,5 hPa 0,0 mm 4,3 km/h (1 Bft) O-SO 247 0 min 0 W/m 6,1 C 8,5 C 7,2 km/h (2 Bft)
11/04/2012 22:40 8,4 C 86 % 1003,4 hPa 0,0 mm 5,8 km/h (2 Bft) S-SO 202 0 min 0 W/m 6,2 C 7,7 C 9,7 km/h (2 Bft)
11/04/2012 22:50 8,4 C 87 % 1003,5 hPa 0,0 mm 2,9 km/h (1 Bft) SO 225 0 min 0 W/m 6,4 C 8,4 C 6,1 km/h (2 Bft)
11/04/2012 23:00 8,2 C 87 % 1003,5 hPa 0,0 mm 3,6 km/h (1 Bft) S-SO 202 0 min 0 W/m 6,2 C 8,2 C 3,6 km/h (1 Bft)
11/04/2012 23:10 8,1 C 87 % 1003,4 hPa 0,0 mm 2,5 km/h (1 Bft) SO 225 0 min 0 W/m 6,1 C 8,1 C 6,8 km/h (2 Bft)
11/04/2012 23:20 8,1 C 87 % 1003,5 hPa 0,0 mm 4,3 km/h (1 Bft) SO 225 0 min 0 W/m 6,1 C 8,1 C 6,5 km/h (2 Bft)
11/04/2012 23:30 8,1 C 87 % 1003,5 hPa 0,0 mm 6,5 km/h (2 Bft) SO 225 0 min 0 W/m 6,1 C 7,1 C 6,5 km/h (2 Bft)
11/04/2012 23:40 8,1 C 87 % 1003,5 hPa 0,0 mm 3,6 km/h (1 Bft) SO 225 0 min 0 W/m 6,1 C 8,1 C 4,3 km/h (1 Bft)
11/04/2012 23:50 8,1 C 88 % 1003,5 hPa 0,0 mm 3,6 km/h (1 Bft) SO 225 0 min 0 W/m 6,2 C 8,1 C 6,1 km/h (2 Bft)
_ Min-Heure 04:30 15:30 04:40 - 18:50 - - - - 00:30 01:00 16:50
Minimum _ 5,1 C 65 % 1001,4 hPa - 0,4 km/h (0 Bft) - - - - 3,9 C 3,5 C 0,4 km/h (0 Bft)
_ Max-Heure 15:20 09:00 22:00 06:10 16:10 - - 20:20 23:50 14:40 15:20 16:10
Maximum _ 12,6 C 93 % 1003,6 hPa 0,3 mm 12,2 km/h
S-SO (2 Bft)
- - 2 min 0 W/m 7,3 C 12,6 C 19,8 km/h
S-SO (3 Bft)
Moyenne _ 8,3 C 83 % 1002,4 hPa #1,5 mm 5,7 km/h (2 Bft) SO - #2:36 h 0 W/m 5,5 C 7,9 C 8,7 km/h (2 Bft)
Saint Bonnet de Bellac- Haute Vienne - France